Location: Unspecified
(41.5516°N, 88.1098°W)
Time: 11:03:56
(UTC-05:00)

Cosmos 2058 - Visible Passes

Search period start: 04 May 2015 00:00
Search period end: 14 May 2015 00:00
Orbit: 567 x 590 km, 82.5° (Epoch: 03 May)

Date Brightness Start Highest point End Pass type
(mag) Time Alt. Az. Time Alt. Az. Time Alt. Az.
04 May 5.0 03:50:22 10° SE 03:53:42 25° E 03:57:08 10° NE visible
05 May 4.4 03:54:26 10° SSE 03:58:09 34° E 04:01:55 10° NNE visible
06 May 3.7 03:59:07 13° SSE 04:02:36 48° E 04:06:36 10° NNE visible
07 May 3.1 04:03:59 17° S 04:07:04 68° E 04:11:11 10° NNE visible
08 May 2.8 04:08:48 20° S 04:11:33 85° W 04:15:42 10° N visible
09 May 2.9 04:13:34 22° SSW 04:16:04 60° W 04:20:09 10° N visible
10 May 5.5 02:42:00 11° ESE 02:43:55 14° E 02:46:10 10° NE visible
10 May 3.4 04:18:19 22° SW 04:20:35 43° WNW 04:24:33 10° N visible
11 May 5.1 02:46:43 15° ESE 02:48:18 19° E 02:51:18 10° NE visible
11 May 3.8 04:23:02 20° SW 04:25:09 31° WNW 04:28:51 10° NNW visible
12 May 4.7 02:51:25 22° ESE 02:52:42 26° E 02:56:12 10° NNE visible
12 May 4.3 04:27:43 17° WSW 04:29:44 23° WNW 04:33:03 10° NNW visible
13 May 4.1 02:56:04 30° SE 02:57:07 35° E 03:00:57 10° NNE visible
13 May 4.7 04:32:23 13° WSW 04:34:21 17° WNW 04:37:06 10° NNW visible
